Change the Weather History Date:

Wednesday, October 16, 2013

  Actual Average (KUZA) Record (KUZA)
Temperature  
Mean Temperature 65 °F -  
Max Temperature 77 °F 74 °F 84 °F (1965)
Min Temperature 53 °F 51 °F 38 °F (1954)
Growing Degree Days 15 (Base 50)    
Moisture  
Dew Point 58 °F    
Average Humidity 82    
Maximum Humidity 100    
Minimum Humidity 54    
Precipitation  
Precipitation 0.00 in - - ()
Sea Level Pressure  
Sea Level Pressure 30.04 in    
Wind  
Wind Speed 2 mph (North)    
Max Wind Speed 6 mph    
Max Gust Speed -    
Visibility 8 miles    
Events      
Averages and records for this station are not official NWS values.
T = Trace of Precipitation, MM = Missing Value Source: NWS Daily Summary

Daily Weather History Graph

Daily Weather History Graph

Search for Another Location

Airport or City:

Trip Planner

Search our weather history database for the weather conditions in past years. The results will help you decide how hot, cold, wet, or windy it might be!

Date:

Astronomy

Oct. 16, 2013 Rise Set
Actual Time 7:31 AM EDT 6:48 PM EDT
Civil Twilight 7:06 AM EDT 7:13 PM EDT
Nautical Twilight 6:36 AM EDT 7:43 PM EDT
Astronomical Twilight 6:07 AM EDT 8:12 PM EDT
Moon 5:23 PM EDT (10/16) 5:03 AM EDT (10/16)
Length of Visible Light 12h 07m
Length of Day
11h 16m
Waxing Gibbous, 94% of the Moon is Illuminated
Oct 16
Waxing Gibbous
Oct 18
Full
Oct 26
Last Quarter
Nov 3
New
Nov 10
First Quarter

Hourly Weather History & Observations

Time (EDT) Temp. Dew Point Humidity Pressure Visibility Wind Dir Wind Speed Gust Speed Precip Events Conditions
12:15 AM 59.0 °F 53.6 °F 82% 30.09 in 10.0 mi North 3.5 mph - N/A   Clear
12:35 AM 60.8 °F 53.6 °F 77% 30.08 in 7.0 mi NNW 3.5 mph - N/A   Clear
12:55 AM 59.0 °F 53.6 °F 82% 30.08 in 10.0 mi Calm Calm - N/A   Clear
1:15 AM 60.8 °F 53.6 °F 77% 30.08 in 10.0 mi Calm Calm - N/A   Clear
1:35 AM 59.0 °F 53.6 °F 82% 30.07 in 7.0 mi Calm Calm - N/A   Clear
1:55 AM 57.2 °F 53.6 °F 88% 30.07 in 7.0 mi Calm Calm - N/A   Clear
2:15 AM 59.0 °F 53.6 °F 82% 30.06 in 7.0 mi Calm Calm - N/A   Clear
2:35 AM 59.0 °F 55.4 °F 88% 30.06 in 10.0 mi Calm Calm - N/A   Clear
2:55 AM 59.0 °F 53.6 °F 82% 30.05 in 7.0 mi Calm Calm - N/A   Clear
3:15 AM 59.0 °F 55.4 °F 88% 30.05 in 10.0 mi Calm Calm - N/A   Clear
3:35 AM 59.0 °F 55.4 °F 88% 30.05 in 7.0 mi North 3.5 mph - N/A   Clear
3:55 AM 59.0 °F 55.4 °F 88% 30.05 in 7.0 mi North 3.5 mph - N/A   Clear
4:15 AM 59.0 °F 55.4 °F 88% 30.05 in 7.0 mi Calm Calm - N/A   Clear
4:35 AM 59.0 °F 55.4 °F 88% 30.05 in 7.0 mi Calm Calm - N/A   Clear
4:55 AM 59.0 °F 55.4 °F 88% 30.05 in 7.0 mi North 3.5 mph - N/A   Clear
5:15 AM 59.0 °F 55.4 °F 88% 30.05 in 7.0 mi North 3.5 mph - N/A   Clear
5:35 AM 55.4 °F 53.6 °F 94% 30.05 in 10.0 mi North 3.5 mph - N/A   Clear
5:55 AM 59.0 °F 57.2 °F 94% 30.05 in 7.0 mi North 4.6 mph - N/A   Clear
6:15 AM 57.2 °F 55.4 °F 94% 30.05 in 7.0 mi North 3.5 mph - N/A   Clear
6:35 AM 55.4 °F 55.4 °F 100% 30.05 in 7.0 mi Calm Calm - N/A   Clear
6:55 AM 55.4 °F 55.4 °F 100% 30.05 in 7.0 mi Calm Calm - N/A   Clear
7:15 AM 55.4 °F 55.4 °F 100% 30.05 in 7.0 mi North 3.5 mph - N/A   Clear
7:35 AM 53.6 °F 53.6 °F 100% 30.06 in 7.0 mi North 3.5 mph - N/A   Clear
7:55 AM 53.6 °F 53.6 °F 100% 30.07 in 5.0 mi North 3.5 mph - N/A   Clear
8:15 AM 55.4 °F 55.4 °F 100% 30.07 in 5.0 mi North 3.5 mph - N/A   Clear
8:35 AM 59.0 °F 57.2 °F 94% 30.08 in 7.0 mi Calm Calm - N/A   Clear
8:55 AM 60.8 °F 59.0 °F 94% 30.08 in 7.0 mi Calm Calm - N/A   Clear
9:15 AM 62.6 °F 59.0 °F 88% 30.09 in 7.0 mi North 5.8 mph - N/A   Clear
9:35 AM 64.4 °F 60.8 °F 88% 30.09 in 5.0 mi North 4.6 mph - N/A   Clear
9:55 AM 66.2 °F 59.0 °F 78% 30.09 in 7.0 mi NE 5.8 mph - N/A   Clear
10:15 AM 68.0 °F 60.8 °F 78% 30.08 in 7.0 mi ENE 3.5 mph - N/A   Scattered Clouds
10:35 AM 69.8 °F 60.8 °F 73% 30.07 in 7.0 mi Calm Calm - N/A   Clear
10:55 AM 69.8 °F 60.8 °F 73% 30.07 in 7.0 mi Calm Calm - N/A   Clear
11:15 AM 69.8 °F 60.8 °F 73% 30.07 in 10.0 mi Calm Calm - N/A   Clear
11:35 AM 71.6 °F 60.8 °F 69% 30.07 in 10.0 mi Calm Calm - N/A   Mostly Cloudy
11:55 AM 73.4 °F 60.8 °F 65% 30.07 in 10.0 mi East 3.5 mph - N/A   Overcast
12:35 PM 71.6 °F 60.8 °F 69% 30.07 in 7.0 mi West 3.5 mph - N/A   Overcast
12:55 PM 71.6 °F 60.8 °F 69% 30.05 in 7.0 mi Calm Calm - N/A   Mostly Cloudy
1:35 PM 75.2 °F 59.0 °F 57% 30.02 in 7.0 mi NNE 3.5 mph - N/A   Mostly Cloudy
1:55 PM 73.4 °F 59.0 °F 61% 30.02 in 7.0 mi Calm Calm - N/A   Mostly Cloudy
2:35 PM 77.0 °F 59.0 °F 54% 30.00 in 7.0 mi Calm Calm - N/A   Mostly Cloudy
2:55 PM 77.0 °F 59.0 °F 54% 29.99 in 10.0 mi Calm Calm - N/A   Scattered Clouds
3:35 PM 77.0 °F 59.0 °F 54% 29.99 in 10.0 mi Calm Calm - N/A   Scattered Clouds
3:55 PM 77.0 °F 59.0 °F 54% 29.99 in 7.0 mi Calm Calm - N/A   Scattered Clouds
4:35 PM 75.2 °F 60.8 °F 61% 29.99 in 7.0 mi NNW 3.5 mph - N/A   Mostly Cloudy
4:55 PM 75.2 °F 60.8 °F 61% 29.99 in 10.0 mi Calm Calm - N/A   Scattered Clouds
5:35 PM 73.4 °F 60.8 °F 65% 29.98 in 7.0 mi Calm Calm - N/A   Clear
5:55 PM 73.4 °F 60.8 °F 65% 29.98 in 7.0 mi Calm Calm - N/A   Clear
6:35 PM 69.8 °F 62.6 °F 78% 29.99 in 7.0 mi Calm Calm - N/A   Scattered Clouds
6:55 PM 69.8 °F 62.6 °F 78% 30.00 in 10.0 mi Calm Calm - N/A   Mostly Cloudy
7:35 PM 69.8 °F 62.6 °F 78% 30.00 in 10.0 mi Calm Calm - N/A   Overcast
7:55 PM 69.8 °F 62.6 °F 78% 30.00 in 10.0 mi Calm Calm - N/A   Scattered Clouds
8:15 PM 68.0 °F 62.6 °F 83% 29.99 in 7.0 mi Calm Calm - N/A   Clear
8:35 PM 68.0 °F 62.6 °F 83% 30.00 in 10.0 mi Calm Calm - N/A   Clear
8:55 PM 68.0 °F 62.6 °F 83% 30.00 in 10.0 mi Calm Calm - N/A   Clear
9:35 PM 66.2 °F 62.6 °F 88% 30.01 in 7.0 mi Calm Calm - N/A   Clear
9:55 PM 66.2 °F 62.6 °F 88% 30.01 in 7.0 mi Calm Calm - N/A   Clear
10:15 PM 64.4 °F 62.6 °F 94% 30.01 in 7.0 mi Calm Calm - N/A   Clear
10:35 PM 64.4 °F 62.6 °F 94% 30.01 in 7.0 mi Calm Calm - N/A   Clear
10:55 PM 64.4 °F 62.6 °F 94% 30.02 in 10.0 mi Calm Calm - N/A   Clear
11:15 PM 64.4 °F 62.6 °F 94% 30.01 in 7.0 mi Calm Calm - N/A   Scattered Clouds
11:35 PM 62.6 °F 62.6 °F 100% 30.01 in 7.0 mi Calm Calm - N/A   Clear
11:55 PM 62.6 °F 62.6 °F 100% 30.00 in 10.0 mi Calm Calm - N/A   Scattered Clouds